This is the latest recevied weather packets stored in our database for station/object DG8SF-13. If no packets are shown the sender has not sent any weather packets the latest 10 day(s).
| Time | Temp. | Humidity | Pressure | Rain* | Wind** | Luminosity | Snow |
|---|---|---|---|---|---|---|---|
| 1788003397 | 24.44° C | 53% | 1016 hPa | 0 mm | - | - | - |
| 1788003089 | 24.44° C | 52% | 1016.1 hPa | 0 mm | - | - | - |
| 1788002750 | 24.44° C | 53% | 1016 hPa | 0 mm | - | - | - |
| 1788002438 | 24.44° C | 57% | 1016.2 hPa | 0 mm | - | - | - |
| 1788002102 | 24.44° C | 54% | 1016.3 hPa | 0 mm | - | - | - |
| 1788001789 | 23.89° C | 54% | 1016.3 hPa | 0 mm | - | - | - |
| 1788001478 | 24.44° C | 54% | 1016.3 hPa | 0 mm | - | - | - |
| 1788001155 | 23.33° C | 58% | 1016.4 hPa | 0 mm | - | - | - |
| 1788000829 | 23.33° C | 56% | 1016.4 hPa | 0 mm | - | - | - |
| 1788000518 | 23.33° C | 58% | 1016.5 hPa | 0 mm | - | - | - |
| 1788000206 | 22.78° C | 58% | 1016.5 hPa | 0 mm | - | - | - |
| 1787999895 | 22.78° C | 55% | 1016.6 hPa | 0 mm | - | - | - |
| 1787999581 | 23.33° C | 59% | 1016.6 hPa | 0 mm | - | - | - |
| 1787999272 | 23.33° C | 58% | 1016.7 hPa | 0 mm | - | - | - |
| 1787998946 | 23.33° C | 58% | 1016.7 hPa | 0 mm | - | - | - |
| 1787998622 | 23.33° C | 58% | 1016.8 hPa | 0 mm | - | - | - |
| 1787998310 | 22.78° C | 62% | 1016.9 hPa | 0 mm | - | - | - |
| 1787997999 | 22.78° C | 62% | 1017 hPa | 0 mm | - | - | - |
| 1787997685 | 22.78° C | 61% | 1017 hPa | 0 mm | - | - | - |
| 1787997377 | 22.22° C | 62% | 1017.1 hPa | 0 mm | - | - | - |
| 1787997066 | 21.67° C | 67% | 1017.2 hPa | 0 mm | - | - | - |
| 1787996750 | 21.67° C | 67% | 1017.1 hPa | 0 mm | - | - | - |
| 1787996438 | 21.67° C | 65% | 1017.2 hPa | 0 mm | - | - | - |
| 1787996127 | 21.67° C | 63% | 1017.3 hPa | 0 mm | - | - | - |
| 1787995814 | 21.67° C | 65% | 1017.3 hPa | 0 mm | - | - | - |
* Rain latest hour (hover to see other rain measurements)
** Current wind speed in m/s (hover to see current wind gust speed)